sat.trackr.live / text

‹ back to catalog

STARLINK-2674

NORAD 48354 · 2021-038B

PAYLOAD ACTIVE UNKNOWN

§ Identity

Operator
Country
US
Launch date
2021-05-04
Launch site
AFETR
Launch vehicle
Mass (kg)
RCS (m²)

Purposes: comms

External: N2YO · Heavens-Above · Gunter

§ Orbital elements

Epoch: 2026-09-10T05:05:09.487104Z

Period
94.01 min
Inclination
53.1580°
Eccentricity
0.0002394
Mean motion
15.31697243 rev/d
Perigee alt
469.1 km
Apogee alt
472.4 km
Semi-major
6,848.9 km
B*
-3.7848e-5
RAAN
219.4990°
Arg perigee
98.7089°
Mean anomaly
261.4183°
Rev number
29,535

§ Raw data

STARLINK-26741 48354U 21038B   26253.21191536 -.00001540  00000+0 -37848-4 0  99992 48354  53.1580 219.4990 0002394  98.7089 261.4183 15.31697243295351

JSON: /api/v1/satellites/48354 · /tle

For live sub-satellite position, see the globe view (requires WebGL).

§ Visibility from observer

Set your observer location to see the next 7 days of passes ≥ 10°. The values pass through the URL so the page stays shareable.

No JS? Fill the form by hand. The geolocation button needs JavaScript.